Tracking 23731 objects as of 26-Sep-2021
HD Live streaming from Space Station
objects crossing your sky now

STARLINK-2187

Track STARLINK-2187 now!
10-day predictions
STARLINK-2187 is classified as:


NORAD ID: 48562
Int'l Code: 2021-041K
Perigee: 553.6 km
Apogee: 555.1 km
Inclination: 53.1 °
Period: 95.6 minutes
Semi major axis: 6925 km
RCS: Unknown
Launch date: May 15, 2021
Source: United States (US)
Launch site: AIR FORCE EASTERN TEST RANGE (AFETR)
aabbcc
Your satellite tracking list
Your tracking list is empty




NASA's NSSDC Master Catalog

Two Line Element Set (TLE):
1 48562U 21041K   21269.18313859  .00000150  00000-0  28930-4 0  9993
2 48562  53.0609 228.7866 0001137  48.8576 311.2511 15.06402969 20603
Source of the keplerian elements: AFSPC